Flag for Australia Weather past 2 weeks in Uluru, Northern Territory, Australia

Now
79 °F

Sunny.


Feels Like: 78 °F
Forecast: 57 / 91 °F
Wind: 8 mph from Northeast

Location: Ayers Rock

Current Time: Sep 17, 2014 at 3:07:31 PM

Latest Report: Sep 17, 2014 at 2:30 PM


Visibility: N/A

Pressure: 30.07 "Hg

Humidity: 21%

Dew point: 36 °F

Location of UluruLocation

Historic Weather in Uluru — Graph

°F

Uluru temperature yesterday

Maximum temperature yesterday: 88 °F (at 3:30 PM)
Minimum temperature yesterday: 61 °F (at 6:30 AM)
Average temperature yesterday: 74 °F

Past Weeks' High & Low Weather Summary

 TemperatureHumidityPressure
High95 °F (Sep 8, 1:30 PM)67% (Sep 6, 6:30 AM)30.24 "Hg (Sep 6, 6:30 AM)
Low45 °F (Sep 3, 4:30 AM)7% (Sep 14, 5:30 PM)29.83 "Hg (Sep 8, 4:30 PM)
Average70 °F27%30.06 "Hg
* Reported Sep 2 1:30 PM — Sep 17 1:30 PM, Uluru, Weather by CustomWeather, © 2014

Note: Actual official high and low records may vary slightly from our data, if they occured in-between our weather recording intervals... More about our weather records

Advertising

Uluru weather history for previous 24 hours

 ConditionsComfort  
Time TempWeatherWind HumidityBarometerVisibility
1:30 PM
Sep 17
77 °FSunny.13 mph22%30.09 "HgN/A
12:30 PM77 °FSunny.15 mph22%30.09 "HgN/A
11:30 AM73 °FSunny.18 mph27%30.12 "HgN/A
10:30 AM72 °FSunny.22 mph29%30.15 "HgN/A
9:30 AM72 °FSunny.24 mph29%30.15 "HgN/A
8:30 AM66 °FSunny.14 mph37%30.18 "HgN/A
7:30 AM64 °FSunny.12 mph37%30.15 "HgN/A
6:30 AM64 °FSunny.13 mph37%30.12 "HgN/A
5:30 AM64 °FClear.10 mph37%30.12 "HgN/A
4:30 AM64 °FClear.13 mph37%30.09 "HgN/A
3:30 AM66 °FClear.10 mph35%30.09 "HgN/A
2:30 AM68 °FClear.13 mph33%30.09 "HgN/A
1:30 AM72 °FClear.15 mph27%30.09 "HgN/A
12:30 AM72 °FClear.12 mph27%30.09 "HgN/A
11:30 PM
Sep 16
72 °FClear.12 mph25%30.07 "HgN/A
10:30 PM73 °FClear.9 mph23%30.04 "HgN/A
9:30 PM77 °FClear.10 mph21%30.01 "HgN/A
8:30 PM75 °FClear.8 mph19%29.98 "HgN/A
7:30 PM79 °FClear.6 mph17%29.98 "HgN/A
6:30 PM84 °FClear.5 mph13%29.95 "HgN/A
5:30 PM88 °FSunny.2 mph11%29.95 "HgN/A
4:30 PM88 °FSunny.7 mph12%29.95 "HgN/A
3:30 PM88 °FSunny.8 mph13%29.95 "HgN/A
Weather by CustomWeather, © 2014

See weather overviewHow to use our weather pages